| time (UTC) | temp F | wind direction | speed knots | gust knots | rain 1hr in | rain 24hr in | rain mn in | humidity % | barometer mb |
| 20260906184611 | 106 | 43 | 2.6 | 7.0 | 0.00 | 0.00 | 0.00 | 31 | 1010.8 |
| 20260906183113 | 106 | 87 | 1.7 | 4.3 | 0.00 | 0.00 | 0.00 | 31 | 1010.9 |
| 20260906181604 | 106 | 286 | 0.9 | 3.5 | 0.00 | 0.00 | 0.00 | 31 | 1011.2 |
| 20260906180014 | 106 | 63 | 1.7 | 6.1 | 0.00 | 0.00 | 0.00 | 31 | 1011.7 |
| 20260906174506 | 106 | 172 | 0.9 | 5.2 | 0.00 | 0.00 | 0.00 | 33 | 1012.0 |
| 20260906173003 | 104 | 174 | 2.6 | 4.3 | 0.00 | 0.00 | 0.00 | 35 | 1012.2 |
| 20260906171505 | 102 | 340 | 0.9 | 5.2 | 0.00 | 0.00 | 0.00 | 38 | 1012.5 |
| 20260906170116 | 102 | 212 | 1.7 | 5.2 | 0.00 | 0.00 | 0.00 | 38 | 1012.6 |
| 20260906164600 | 100 | 28 | 1.7 | 7.0 | 0.00 | 0.00 | 0.00 | 39 | 1012.8 |
| 20260906163100 | 99 | 152 | 0.9 | 4.3 | 0.00 | 0.00 | 0.00 | 40 | 1012.9 |
| 20260906161621 | 98 | 285 | 2.6 | 4.3 | 0.00 | 0.00 | 0.00 | 43 | 1012.9 |
| 20260906160005 | 96 | 285 | 0.9 | 3.5 | 0.00 | 0.00 | 0.00 | 45 | 1013.1 |
| 20260906154504 | 95 | 327 | 1.7 | 6.1 | 0.00 | 0.00 | 0.00 | 48 | 1013.1 |
| 20260906153006 | 94 | 189 | 0.9 | 3.5 | 0.00 | 0.00 | 0.00 | 51 | 1013.3 |
| 20260906151504 | 92 | 166 | 0.9 | 7.0 | 0.00 | 0.00 | 0.00 | 53 | 1013.2 |
| 20260906150002 | 91 | 186 | 1.7 | 7.0 | 0.00 | 0.00 | 0.00 | 55 | 1013.2 |
| 20260906144602 | 89 | 291 | 0.9 | 4.3 | 0.00 | 0.00 | 0.00 | 57 | 1013.2 |
| 20260906143059 | 87 | 147 | 0.9 | 4.3 | 0.00 | 0.00 | 0.00 | 61 | 1013.1 |
| 20260906141620 | 85 | 299 | 0.9 | 4.3 | 0.00 | 0.00 | 0.00 | 64 | 1013.3 |
| 20260906140009 | 84 | 130 | 1.7 | 7.0 | 0.00 | 0.00 | 0.00 | 67 | 1013.3 |
| 20260906134505 | 82 | 190 | 1.7 | 7.0 | 0.00 | 0.00 | 0.00 | 70 | 1013.2 |
| 20260906133002 | 80 | 198 | 0.9 | 3.5 | 0.00 | 0.00 | 0.00 | 73 | 1012.8 |
| 20260906131502 | 79 | 212 | 0.9 | 2.6 | 0.00 | 0.00 | 0.00 | 76 | 1013.0 |
| 20260906130007 | 78 | 170 | 0.9 | 2.6 | 0.00 | 0.00 | 0.00 | 77 | 1012.6 |
| 20260906124501 | 77 | 247 | 0.0 | 2.6 | 0.00 | 0.00 | 0.00 | 78 | 1012.5 |
| 20260906123108 | 77 | 223 | 0.0 | 1.7 | 0.00 | 0.00 | 0.00 | 78 | 1012.2 |
| 20260906121614 | 77 | 122 | 0.0 | 0.9 | 0.00 | 0.00 | 0.00 | 77 | 1012.2 |
| 20260906120106 | 77 | 122 | 0.0 | 2.6 | 0.00 | 0.00 | 0.00 | 77 | 1012.0 |
| 20260906114559 | 77 | 191 | 0.0 | 2.6 | 0.00 | 0.00 | 0.00 | 77 | 1012.1 |
| 20260906113057 | 77 | 124 | 0.0 | 1.7 | 0.00 | 0.00 | 0.00 | 77 | 1012.1 |
| 20260906111503 | 77 | 123 | 0.0 | 0.0 | 0.00 | 0.00 | 0.00 | 77 | 1011.9 |
| 20260906110003 | 77 | 125 | 0.0 | 0.9 | 0.00 | 0.00 | 0.00 | 76 | 1012.1 |
| 20260906104503 | 77 | 268 | 0.0 | 0.9 | 0.00 | 0.00 | 0.00 | 77 | 1011.7 |
| 20260906103103 | 77 | 268 | 0.0 | 0.9 | 0.00 | 0.00 | 0.00 | 77 | 1011.8 |
| 20260906101605 | 77 | 264 | 0.0 | 1.7 | 0.00 | 0.00 | 0.00 | 78 | 1011.8 |
| 20260906100005 | 77 | 337 | 0.0 | 0.0 | 0.00 | 0.00 | 0.00 | 78 | 1011.6 |
| 20260906094505 | 77 | 337 | 0.0 | 0.9 | 0.00 | 0.00 | 0.00 | 77 | 1011.3 |
| 20260906093003 | 78 | 337 | 0.0 | 0.9 | 0.00 | 0.00 | 0.00 | 76 | 1011.5 |
| 20260906091603 | 78 | 44 | 0.0 | 1.7 | 0.00 | 0.00 | 0.00 | 76 | 1011.2 |
| 20260906090001 | 78 | 44 | 0.0 | 0.0 | 0.00 | 0.00 | 0.00 | 75 | 1011.0 |
| 20260906084504 | 78 | 44 | 0.0 | 0.0 | 0.00 | 0.00 | 0.00 | 74 | 1011.0 |
| 20260906083003 | 78 | 44 | 0.0 | 0.9 | 0.00 | 0.00 | 0.00 | 74 | 1011.0 |
| 20260906081602 | 79 | 47 | 0.0 | 0.9 | 0.00 | 0.00 | 0.00 | 73 | 1010.8 |
| 20260906080100 | 79 | 47 | 0.0 | 1.7 | 0.00 | 0.00 | 0.00 | 72 | 1011.0 |
| 20260906074559 | 80 | 47 | 0.0 | 0.0 | 0.00 | 0.00 | 0.00 | 71 | 1011.0 |
| 20260906073058 | 80 | 47 | 0.0 | 0.9 | 0.00 | 0.00 | 0.00 | 70 | 1011.4 |
| 20260906071505 | 81 | 48 | 0.0 | 1.7 | 0.00 | 0.00 | 0.00 | 69 | 1011.5 |
| 20260906070004 | 81 | 94 | 0.0 | 0.0 | 0.00 | 0.00 | 0.00 | 68 | 1011.1 |
| 20260906064604 | 81 | 129 | 0.0 | 0.0 | 0.00 | 0.00 | 0.00 | 68 | 1011.0 |
| 20260906063102 | 82 | 129 | 0.0 | 1.7 | 0.00 | 0.00 | 0.00 | 67 | 1011.1 |
| 20260906061602 | 82 | 147 | 0.0 | 1.7 | 0.00 | 0.00 | 0.00 | 66 | 1010.9 |
| 20260906060135 | 82 | 104 | 0.9 | 1.7 | 0.00 | 0.00 | 0.00 | 65 | 1011.2 |
| 20260906054612 | 83 | 15 | 0.0 | 0.0 | 0.00 | 0.00 | 0.00 | 65 | 1011.0 |
| 20260906053057 | 83 | 14 | 0.0 | 1.7 | 0.00 | 0.00 | 0.00 | 64 | 1011.1 |
| 20260906051506 | 84 | 359 | 0.0 | 1.7 | 0.00 | 0.00 | 0.00 | 64 | 1011.0 |
| 20260906050001 | 84 | 13 | 0.9 | 1.7 | 0.00 | 0.00 | 0.00 | 64 | 1011.2 |
| 20260906044601 | 84 | 123 | 0.9 | 2.6 | 0.00 | 0.00 | 0.00 | 63 | 1011.4 |
| 20260906043058 | 84 | 158 | 0.0 | 0.9 | 0.00 | 0.00 | 0.00 | 64 | 1011.2 |
| 20260906041559 | 85 | 163 | 0.0 | 0.9 | 0.00 | 0.00 | 0.00 | 64 | 1011.1 |
| 20260906040003 | 85 | 163 | 0.0 | 1.7 | 0.00 | 0.00 | 0.00 | 62 | 1011.0 |
| 20260906034502 | 86 | 163 | 0.0 | 0.9 | 0.00 | 0.00 | 0.00 | 61 | 1010.9 |
| 20260906033106 | 87 | 162 | 0.0 | 1.7 | 0.00 | 0.00 | 0.00 | 59 | 1010.9 |
| 20260906031603 | 87 | 133 | 0.0 | 0.0 | 0.00 | 0.00 | 0.00 | 57 | 1010.7 |
| 20260906030059 | 88 | 133 | 0.0 | 0.0 | 0.00 | 0.00 | 0.00 | 55 | 1010.7 |
| 20260906024606 | 89 | 133 | 0.0 | 0.0 | 0.00 | 0.00 | 0.00 | 54 | 1010.5 |
| 20260906023058 | 90 | 133 | 0.0 | 0.0 | 0.00 | 0.00 | 0.00 | 52 | 1010.5 |
| 20260906021601 | 90 | 133 | 0.0 | 0.0 | 0.00 | 0.00 | 0.00 | 51 | 1010.2 |
| 20260906020057 | 91 | 134 | 0.0 | 0.0 | 0.00 | 0.00 | 0.00 | 49 | 1010.1 |
| 20260906014555 | 91 | 133 | 0.0 | 0.0 | 0.00 | 0.00 | 0.00 | 49 | 1010.0 |
| 20260906013053 | 93 | 133 | 0.0 | 0.0 | 0.00 | 0.00 | 0.00 | 47 | 1009.8 |
| 20260906011553 | 95 | 133 | 0.0 | 0.0 | 0.00 | 0.00 | 0.00 | 45 | 1009.8 |
| 20260906010130 | 97 | 133 | 0.0 | 0.0 | 0.00 | 0.00 | 0.00 | 42 | 1009.4 |
| 20260906004608 | 99 | 133 | 0.0 | 0.0 | 0.00 | 0.00 | 0.00 | 40 | 1009.4 |
| 20260906003100 | 100 | 133 | 0.0 | 0.0 | 0.00 | 0.00 | 0.00 | 37 | 1009.5 |
| 20260906001604 | 102 | 133 | 0.0 | 0.9 | 0.00 | 0.00 | 0.00 | 35 | 1009.5 |
| 20260906000056 | 104 | 158 | 0.0 | 2.6 | 0.00 | 0.00 | 0.00 | 33 | 1009.4 |
| 20260905234557 | 105 | 75 | 0.0 | 1.7 | 0.00 | 0.00 | 0.00 | 32 | 1009.6 |
| 20260905233056 | 105 | 39 | 0.0 | 2.6 | 0.00 | 0.00 | 0.00 | 32 | 1009.5 |
| 20260905231511 | 106 | 52 | 0.9 | 5.2 | 0.00 | 0.00 | 0.00 | 31 | 1009.5 |
| 20260905230004 | 106 | 168 | 0.9 | 3.5 | 0.00 | 0.00 | 0.00 | 30 | 1009.5 |
| 20260905224502 | 106 | 100 | 0.9 | 2.6 | 0.00 | 0.00 | 0.00 | 31 | 1009.4 |
| 20260905223102 | 106 | 193 | 1.7 | 7.0 | 0.00 | 0.00 | 0.00 | 30 | 1009.5 |
| 20260905221602 | 107 | 64 | 0.9 | 3.5 | 0.00 | 0.00 | 0.00 | 29 | 1009.3 |
| 20260905220100 | 107 | 42 | 1.7 | 3.5 | 0.00 | 0.00 | 0.00 | 30 | 1009.6 |
| 20260905214511 | 107 | 39 | 0.9 | 6.1 | 0.00 | 0.00 | 0.00 | 31 | 1009.7 |
| 20260905213005 | 107 | 181 | 0.9 | 4.3 | 0.00 | 0.00 | 0.00 | 31 | 1009.6 |
| 20260905211504 | 106 | 232 | 0.9 | 5.2 | 0.00 | 0.00 | 0.00 | 31 | 1009.8 |
| 20260905210003 | 107 | 222 | 0.0 | 4.3 | 0.00 | 0.00 | 0.00 | 31 | 1010.1 |
| 20260905204503 | 107 | 275 | 1.7 | 4.3 | 0.00 | 0.00 | 0.00 | 30 | 1010.5 |
| 20260905203102 | 106 | 135 | 1.7 | 5.2 | 0.00 | 0.00 | 0.00 | 32 | 1010.8 |
| 20260905201602 | 104 | 104 | 0.9 | 5.2 | 0.00 | 0.00 | 0.00 | 34 | 1011.0 |
| 20260905200127 | 102 | 354 | 0.9 | 5.2 | 0.00 | 0.00 | 0.00 | 36 | 1011.1 |
| 20260905194508 | 103 | 147 | 1.7 | 6.1 | 0.00 | 0.00 | 0.00 | 35 | 1011.3 |
| 20260905193015 | 103 | 235 | 1.7 | 6.1 | 0.00 | 0.00 | 0.00 | 34 | 1011.6 |
| 20260905191505 | 102 | 129 | 1.7 | 5.2 | 0.00 | 0.00 | 0.00 | 36 | 1011.8 |
| 20260905190006 | 103 | 100 | 0.9 | 4.3 | 0.00 | 0.00 | 0.00 | 36 | 1012.0 |